Hovedside
METAR-TAF:

METAR-TAF

Lufthavner :

Lycksele, Sverige

Lycksele lufthavn

breddegrad: 64-32-51N, lengdegrad: 018-43-03E, høyde over havet: 211 m

Gjeldene værobservasjon

Denne rapporten ble laget for 22 minutter siden, klokken 19:50 UTC
Vind 9 kt fra Nord-nordvest med vindkast opp mot 20 kt, skiftende mellom Nordvest og Nord-nordøst
Temperatur 10°C
Luftfuktighet 53%
Trykk 1006 hPa
Sikt 10 km eller mer

METAR: ESNL 281950Z AUTO 34009G20KT 310V030 9999 NCD 10/01 Q1006

Tid: 22:12 (20:12 UTC)


TAF: fraværende

Værobservasjoner og værvarsel for over 4000 flyplasser (METAR- og TAF-rapporter).

Tilgjengelige stasjoner er representert av de røde og gule prikkene på kartet.

Hold musepekeren over prikken for å se navnet på stasjonen.

Klikk så for å se værobservasjoner og -varsler.

For å forandre kartet kan du klikke på den grønne knappen med svart kryss for å zoome inn, på den grønne knappen med strek for å zoome ut, eller på de grønne pilene for å se tilstøtende kart.


METAR-TAF: